When you browse on this site, cookies collect data to enhance your experience and personalize the content and advertising you see.
Visit our Privacy Policy to learn more. By continuing to use the site, you agree to this use of cookies and data.
  • In Czech Republic
  • List of Countries
  • For 7 days
  • Water Temperature
  • Satellite Maps
  • Weather Map
  • Weather Widgets
  • user-avatar
    Login

    Hourly Weather Miskolc

    Today, 24 January, Thursday

    Time Temperature Precipitation Wind Pressure Humidity
    00:00 -6°C° 0 mm 3 mps 738 mmHg 84%
    01:00 -7°C° 0 mm 4 mps 738 mmHg 84%
    02:00 -7°C° 0 mm 4 mps 738 mmHg 83%
    03:00 -7°C° 0 mm 4 mps 738 mmHg 82%
    04:00 -7°C° 0 mm 4 mps 737 mmHg 82%
    05:00 -7°C° 0 mm 4 mps 737 mmHg 81%
    06:00 -7°C° 0 mm 4 mps 737 mmHg 81%
    07:00 -7°C° 0 mm 5 mps 737 mmHg 79%
    08:00 -6°C° 0 mm 5 mps 737 mmHg 77%
    09:00 -5°C° 0 mm 5 mps 737 mmHg 75%
    10:00 -4°C° 0 mm 5 mps 737 mmHg 73%
    11:00 -4°C° 0 mm 5 mps 737 mmHg 73%
    12:00 -2°C° 0 mm 5 mps 737 mmHg 72%
    13:00 -2°C° 0 mm 5 mps 737 mmHg 72%
    14:00 -2°C° 0.1 mm 5 mps 738 mmHg 75%
    15:00 -4°C° 0.1 mm 5 mps 738 mmHg 77%
    16:00 -4°C° 0.1 mm 5 mps 738 mmHg 80%
    17:00 -4°C° 0.2 mm 4 mps 738 mmHg 82%
    18:00 -4°C° 0.2 mm 4 mps 738 mmHg 84%
    19:00 -5°C° 0.2 mm 4 mps 738 mmHg 85%
    20:00 -5°C° 0.3 mm 3 mps 739 mmHg 87%
    21:00 -5°C° 0.3 mm 3 mps 739 mmHg 89%
    22:00 -5°C° 0.3 mm 3 mps 740 mmHg 90%
    23:00 -4°C° 0.3 mm 2 mps 740 mmHg 91%

    Tomorrow, 25 January, Friday

    Time Temperature Precipitation Wind Pressure Humidity
    00:00 -4°C° 0.3 mm 2 mps 740 mmHg 91%
    01:00 -4°C° 0.3 mm 2 mps 740 mmHg 92%
    02:00 -4°C° 0.1 mm 2 mps 741 mmHg 92%
    03:00 -4°C° 0.1 mm 2 mps 741 mmHg 92%
    04:00 -4°C° 0.1 mm 2 mps 741 mmHg 91%
    05:00 -2°C° 0.1 mm 1 mps 741 mmHg 92%
    06:00 -2°C° 0.1 mm 1 mps 741 mmHg 92%
    07:00 -2°C° 0.1 mm 1 mps 742 mmHg 92%
    08:00 -2°C° 0.1 mm 1 mps 742 mmHg 90%
    09:00 -1°C° 0.1 mm 1 mps 742 mmHg 88%
    10:00 -1°C° 0.1 mm 1 mps 743 mmHg 87%
    11:00 0°C° 0 mm 1 mps 743 mmHg 86%
    12:00 +1°C° 0 mm 1 mps 743 mmHg 86%
    13:00 +1°C° 0 mm 1 mps 743 mmHg 85%
    14:00 +1°C° 0 mm 1 mps 743 mmHg 87%
    15:00 -1°C° 0 mm 0 mps 743 mmHg 88%
    16:00 -1°C° 0 mm 0 mps 743 mmHg 90%
    17:00 -1°C° 0 mm 1 mps 744 mmHg 90%
    18:00 -1°C° 0 mm 1 mps 744 mmHg 90%
    19:00 -4°C° 0 mm 2 mps 744 mmHg 90%
    20:00 -4°C° 0 mm 2 mps 744 mmHg 90%
    21:00 -4°C° 0 mm 2 mps 744 mmHg 90%
    22:00 -5°C° 0 mm 2 mps 744 mmHg 89%
    23:00 -5°C° 0 mm 2 mps 744 mmHg 89%

    Day after tomorrow, 26 January, Saturday

    Time Temperature Precipitation Wind Pressure Humidity
    00:00 -5°C° 0 mm 2 mps 744 mmHg 89%
    01:00 -5°C° 0 mm 2 mps 744 mmHg 89%
    02:00 -3°C° 0 mm 1 mps 744 mmHg 88%
    03:00 -4°C° 0 mm 1 mps 744 mmHg 88%
    04:00 -4°C° 0 mm 1 mps 744 mmHg 88%
    05:00 -4°C° 0 mm 1 mps 744 mmHg 88%
    06:00 -4°C° 0 mm 1 mps 743 mmHg 88%
    07:00 -6°C° 0 mm 1 mps 743 mmHg 87%
    08:00 -4°C° 0 mm 1 mps 743 mmHg 86%
    09:00 -3°C° 0 mm 1 mps 743 mmHg 84%
    10:00 -4°C° 0 mm 2 mps 743 mmHg 82%
    11:00 -3°C° 0 mm 2 mps 742 mmHg 80%
    12:00 -2°C° 0 mm 3 mps 742 mmHg 78%
    13:00 -2°C° 0 mm 4 mps 741 mmHg 76%
    14:00 -2°C° 0 mm 4 mps 741 mmHg 78%
    15:00 -2°C° 0 mm 4 mps 740 mmHg 79%
    16:00 -2°C° 0 mm 5 mps 740 mmHg 81%
    17:00 -2°C° 0 mm 5 mps 740 mmHg 83%
    18:00 -2°C° 0 mm 5 mps 740 mmHg 85%
    19:00 -2°C° 0 mm 5 mps 740 mmHg 87%
    20:00 -4°C° 0 mm 5 mps 740 mmHg 87%
    21:00 -3°C° 0 mm 4 mps 740 mmHg 87%
    22:00 -3°C° 0 mm 4 mps 740 mmHg 87%
    23:00 -2°C° 0 mm 3 mps 740 mmHg 88%

    27 January, Sunday

    Time Temperature Precipitation Wind Pressure Humidity
    00:00 -2°C° 0 mm 2 mps 740 mmHg 89%
    01:00 0°C° 0 mm 1 mps 740 mmHg 91%
    02:00 0°C° 0 mm 1 mps 740 mmHg 92%
    03:00 -1°C° 0 mm 1 mps 740 mmHg 93%
    04:00 -2°C° 0 mm 0 mps 739 mmHg 94%
    05:00 -1°C° 0 mm 1 mps 739 mmHg 94%
    06:00 -1°C° 0 mm 1 mps 739 mmHg 95%
    07:00 -1°C° 0 mm 1 mps 739 mmHg 96%
    08:00 0°C° 0 mm 1 mps 739 mmHg 96%
    09:00 +1°C° 0 mm 1 mps 739 mmHg 96%
    10:00 -1°C° 0 mm 2 mps 739 mmHg 96%
    11:00 -1°C° 0.1 mm 2 mps 739 mmHg 96%
    12:00 -1°C° 0.1 mm 2 mps 738 mmHg 96%
    13:00 0°C° 0.1 mm 3 mps 738 mmHg 96%
    14:00 -1°C° 0 mm 2 mps 738 mmHg 96%
    15:00 -1°C° 0 mm 2 mps 737 mmHg 96%
    16:00 -1°C° 0 mm 2 mps 737 mmHg 96%
    17:00 -2°C° 0 mm 2 mps 737 mmHg 95%
    18:00 -2°C° 0 mm 2 mps 737 mmHg 95%
    19:00 -3°C° 0 mm 2 mps 736 mmHg 95%
    20:00 0°C° 0 mm 1 mps 736 mmHg 95%
    21:00 0°C° 0 mm 1 mps 736 mmHg 95%
    22:00 0°C° 0 mm 1 mps 736 mmHg 96%
    23:00 0°C° 0.2 mm 1 mps 736 mmHg 96%

    28 January, Monday

    Time Temperature Precipitation Wind Pressure Humidity
    00:00 0°C° 0.2 mm 1 mps 735 mmHg 96%
    01:00 -1°C° 0.2 mm 2 mps 735 mmHg 95%
    02:00 -1°C° 0.5 mm 2 mps 735 mmHg 96%
    03:00 -1°C° 0.5 mm 2 mps 735 mmHg 96%
    04:00 +1°C° 0.5 mm 2 mps 734 mmHg 97%
    05:00 +1°C° 1.4 mm 2 mps 734 mmHg 97%
    06:00 +1°C° 1.4 mm 2 mps 734 mmHg 96%
    07:00 +1°C° 1.4 mm 2 mps 734 mmHg 96%
    08:00 +1°C° 0.9 mm 2 mps 734 mmHg 97%
    09:00 +1°C° 0.9 mm 2 mps 734 mmHg 98%
    10:00 +1°C° 0.9 mm 2 mps 734 mmHg 98%
    11:00 +1°C° 0.2 mm 2 mps 733 mmHg 99%
    12:00 +2°C° 0.2 mm 2 mps 733 mmHg 99%
    13:00 +2°C° 0.2 mm 2 mps 733 mmHg 99%
    14:00 +2°C° 0.9 mm 2 mps 733 mmHg 99%
    15:00 +1°C° 0.9 mm 2 mps 732 mmHg 99%
    16:00 +1°C° 0.9 mm 2 mps 732 mmHg 99%
    17:00 +1°C° 1.4 mm 2 mps 732 mmHg 99%
    18:00 +1°C° 1.4 mm 2 mps 733 mmHg 98%
    19:00 +1°C° 1.4 mm 2 mps 733 mmHg 98%
    20:00 +1°C° 0.1 mm 2 mps 733 mmHg 98%
    21:00 +1°C° 0.1 mm 2 mps 734 mmHg 97%
    22:00 +1°C° 0.1 mm 2 mps 735 mmHg 96%
    23:00 0°C° 0 mm 3 mps 735 mmHg 95%

    29 January, Tuesday

    Time Temperature Precipitation Wind Pressure Humidity
    00:00 0°C° 0 mm 3 mps 736 mmHg 95%
    01:00 -1°C° 0 mm 3 mps 737 mmHg 94%
    02:00 -1°C° 0 mm 3 mps 738 mmHg 92%
    03:00 -2°C° 0 mm 4 mps 738 mmHg 91%
    04:00 -2°C° 0 mm 4 mps 739 mmHg 89%
    05:00 -2°C° 0 mm 4 mps 739 mmHg 87%
    06:00 -2°C° 0 mm 4 mps 740 mmHg 85%
    07:00 -3°C° 0 mm 4 mps 740 mmHg 83%
    08:00 -1°C° 0 mm 3 mps 741 mmHg 85%
    09:00 -1°C° 0 mm 2 mps 741 mmHg 87%
    10:00 +2°C° 0 mm 1 mps 742 mmHg 89%
    11:00 +2°C° 0 mm 1 mps 742 mmHg 90%
    12:00 +2°C° 0 mm 1 mps 742 mmHg 92%
    13:00 +3°C° 0 mm 1 mps 742 mmHg 94%
    14:00 +2°C° 0 mm 1 mps 742 mmHg 93%
    15:00 +1°C° 0 mm 0 mps 743 mmHg 92%
    16:00 0°C° 0 mm 0 mps 743 mmHg 92%
    17:00 +1°C° 0 mm 1 mps 743 mmHg 92%
    18:00 0°C° 0 mm 1 mps 743 mmHg 93%
    19:00 0°C° 0 mm 1 mps 744 mmHg 94%
    20:00 0°C° 0 mm 1 mps 744 mmHg 94%
    21:00 0°C° 0 mm 1 mps 744 mmHg 95%
    22:00 0°C° 0 mm 1 mps 744 mmHg 95%
    23:00 0°C° 0 mm 1 mps 744 mmHg 95%
    Show more